This is the latest recevied weather packets stored in our database for station/object WX9WTF. If no packets are shown the sender has not sent any weather packets the latest 10 day(s).
| Time | Temp. | Humidity | Pressure | Rain* | Wind** | Luminosity | Snow |
|---|---|---|---|---|---|---|---|
| 1777408448 | 13.89° C | 77% | 1014.2 hPa | 0 mm | - | 364 W/m² | - |
| 1777408142 | 13.89° C | 77% | 1014.6 hPa | 0 mm | - | 274 W/m² | - |
| 1777407838 | 13.89° C | 77% | 1014.8 hPa | 0 mm | - | 320 W/m² | - |
| 1777407535 | 13.33° C | 78% | 1015 hPa | 0 mm | - | 263 W/m² | - |
| 1777407228 | 13.89° C | 77% | 1015.2 hPa | 0 mm | - | 179 W/m² | - |
| 1777406924 | 13.89° C | 77% | 1015.4 hPa | 0 mm | - | 281 W/m² | - |
| 1777406619 | 13.89° C | 78% | 1015.6 hPa | 0 mm | - | 237 W/m² | - |
| 1777406315 | 13.33° C | 77% | 1016.1 hPa | 0 mm | - | 139 W/m² | - |
| 1777406014 | 13.89° C | 75% | 1015.8 hPa | 0 mm | - | 169 W/m² | - |
| 1777405711 | 13.89° C | 76% | 1016 hPa | 0 mm | - | 189 W/m² | - |
| 1777405407 | 13.89° C | 76% | 1015.9 hPa | 0 mm | - | 205 W/m² | - |
| 1777405104 | 13.89° C | 76% | 1015.6 hPa | 0 mm | - | 302 W/m² | - |
| 1777404798 | 13.89° C | 74% | 1015.7 hPa | 0 mm | - | 212 W/m² | - |
| 1777404495 | 13.89° C | 76% | 1015.4 hPa | 0 mm | - | 251 W/m² | - |
| 1777404190 | 13.89° C | 75% | 1015.3 hPa | 0 mm | - | 393 W/m² | - |
| 1777403887 | 13.89° C | 74% | 1015.4 hPa | 0 mm | - | 246 W/m² | - |
| 1777403587 | 13.89° C | 75% | 1015.4 hPa | 0 mm | - | 279 W/m² | - |
| 1777403287 | 13.89° C | 76% | 1015.3 hPa | 0 mm | - | 278 W/m² | - |
| 1777402981 | 13.89° C | 75% | 1015.3 hPa | 0 mm | - | 252 W/m² | - |
| 1777402677 | 13.89° C | 74% | 1015.4 hPa | 0 mm | - | 266 W/m² | - |
| 1777402375 | 14.44° C | 73% | 1015.5 hPa | 0 mm | - | 389 W/m² | - |
| 1777402075 | 14.44° C | 72% | 1015.2 hPa | 0 mm | - | 371 W/m² | - |
| 1777401770 | 14.44° C | 75% | 1015.2 hPa | 0 mm | - | 994 W/m² | - |
| 1777401465 | 14.44° C | 76% | 1015.5 hPa | 0 mm | - | 482 W/m² | - |
| 1777401160 | 13.89° C | 75% | 1015.7 hPa | 0 mm | - | 394 W/m² | - |
* Rain latest hour (hover to see other rain measurements)
** Current wind speed in m/s (hover to see current wind gust speed)